DK8DX-13 Weather Reports


Display with metric or nautical units.
time (UTC)temp
F
wind
direction
speed
MPH
gust
MPH
rain 1hr
in
rain 24hr
in
rain mn
in
humidity
%
barometer
mb
20260506111036 47 358 0.0 9.0 0.02 0.00 0.00 94 1008.2
20260506110606 47 358 0.0 9.0 0.02 0.00 0.00 94 1008.2
20260506110136 47 35 0.0 4.0 0.02 0.00 0.00 94 1008.2
20260506105646 47 340 0.0 6.0 0.03 0.00 0.00 94 1008.2
20260506105241 47 21 0.0 9.0 0.03 0.00 0.00 94 1008.3
20260506104811 46 345 0.0 4.0 0.04 0.00 0.00 94 1008.2
20260506104351 46 3 0.0 6.0 0.04 0.00 0.00 94 1008.2
20260506103906 46 359 0.0 4.0 0.04 0.00 0.00 94 1008.1
20260506103416 46 8 0.0 7.0 0.04 0.00 0.00 94 1008.2
20260506102941 47 348 0.0 16.0 0.04 0.00 0.00 94 1008.1
20260506102516 47 336 0.0 8.0 0.04 0.00 0.00 94 1007.9
20260506102101 47 336 0.0 8.0 0.04 0.00 0.00 94 1007.9
20260506101641 47 359 0.0 8.0 0.04 0.00 0.00 94 1007.8
20260506101211 46 354 0.0 7.0 0.05 0.00 0.00 94 1007.8
20260506100716 46 14 0.0 7.0 0.06 0.00 0.00 94 1007.8
20260506100236 46 38 0.0 3.0 0.07 0.00 0.00 94 1007.9
20260506095751 46 359 0.0 4.0 0.08 0.00 0.00 94 1007.7
20260506095331 45 1 0.0 7.0 0.07 0.00 0.00 94 1007.9
20260506094856 45 348 0.0 6.0 0.04 0.00 0.00 94 1007.8
20260506094433 45 334 0.0 6.0 0.03 0.00 0.00 94 1007.9
20260506094006 45 19 0.0 7.0 0.02 0.00 0.00 94 1007.8
20260506093521 45 357 0.0 7.0 0.02 0.00 0.00 94 1007.8
20260506093033 45 357 0.0 7.0 0.02 0.00 0.00 94 1007.8
20260506092616 45 218 0.0 2.0 0.01 0.00 0.00 94 1007.7
20260506092151 45 315 0.0 3.0 0.00 0.00 0.00 94 1007.7
20260506091736 45 284 0.0 3.0 0.00 0.00 0.00 94 1007.7
20260506091326 45 256 0.0 3.0 0.00 0.00 0.00 94 1007.6
20260506090846 45 279 0.0 7.0 0.00 0.00 0.00 94 1007.4
20260506090426 44 327 0.0 10.0 0.01 0.00 0.00 94 1007.4
20260506085951 44 322 0.0 10.0 0.02 0.00 0.00 94 1007.3
20260506085510 44 9 0.0 8.0 0.02 0.00 0.00 94 1007.2
20260506085041 44 360 0.0 7.0 0.01 0.00 0.00 94 1007.3
20260506084621 44 360 0.0 7.0 0.01 0.00 0.00 94 1007.3
20260506084151 44 251 0.0 6.0 0.00 0.00 0.00 94 1007.3
20260506083721 44 332 0.0 8.0 0.00 0.00 0.00 94 1007.2
20260506083251 45 351 0.0 8.0 0.00 0.00 0.00 94 1007.2
20260506082826 45 348 0.0 4.0 0.00 0.00 0.00 94 1007.2
20260506082416 45 56 0.0 7.0 0.00 0.00 0.00 94 1007.1
20260506081951 45 329 0.0 8.0 0.00 0.00 0.00 94 1007.1
20260506081513 45 337 0.0 9.0 0.00 0.00 0.00 94 1007.0
20260506081031 45 337 0.0 9.0 0.00 0.00 0.00 94 1007.0
20260506080600 45 2 0.0 7.0 0.00 0.00 0.00 94 1007.0
20260506080136 45 2 0.0 7.0 0.00 0.00 0.00 94 1007.0
20260506073426 46 4 0.0 8.0 0.00 0.00 0.00 94 1007.0
20260506073000 46 358 0.0 9.0 0.00 0.00 0.00 94 1007.0
20260506072501 46 353 0.0 9.0 0.00 0.00 0.00 94 1007.0
20260506072021 46 353 0.0 9.0 0.00 0.00 0.00 94 1007.0
20260506071601 47 254 0.0 10.0 0.02 0.00 0.00 94 1007.0
20260506071121 47 254 0.0 10.0 0.02 0.00 0.00 94 1007.0
20260506070631 47 227 0.0 6.0 0.01 0.00 0.00 94 1006.8
20260506070203 47 137 0.0 7.0 0.00 0.00 0.00 94 1006.9
20260506062116 47 360 0.0 9.0 0.03 0.00 0.00 94 1006.3
20260506061651 47 47 0.0 8.0 0.03 0.00 0.00 94 1006.4
20260506061236 47 16 0.0 8.0 0.04 0.00 0.00 94 1006.4
20260506060806 47 39 0.0 8.0 0.05 0.00 0.00 94 1006.3
20260506060336 47 324 0.0 9.0 0.07 0.00 0.00 94 1006.2
20260506051326 47 15 0.0 9.0 0.04 0.00 0.00 94 1006.3
20260506050856 47 21 0.0 13.0 0.03 0.00 0.00 94 1006.2
20260506050436 47 357 0.0 4.0 0.02 0.00 0.00 94 1006.2
20260506045116 47 22 0.0 7.0 0.02 0.00 0.00 94 1006.3
20260506044656 47 64 0.0 10.0 0.03 0.00 0.00 94 1006.2
20260506044221 47 23 0.0 10.0 0.02 0.00 0.00 94 1006.2
20260506043736 47 66 0.0 9.0 0.03 0.00 0.00 94 1006.2
20260506043305 47 7 0.0 6.0 0.03 0.00 0.00 94 1006.2
20260506042831 47 60 0.0 8.0 0.03 0.00 0.00 94 1006.2
20260506042401 47 342 0.0 7.0 0.04 0.00 0.00 94 1006.1
20260506041926 47 63 0.0 7.0 0.04 0.00 0.00 94 1006.2
20260506041511 47 15 0.0 9.0 0.04 0.00 0.00 94 1006.2
20260506041016 47 12 0.0 9.0 0.04 0.00 0.00 94 1006.1
20260506040541 47 25 0.0 13.0 0.04 0.00 0.00 94 1006.2
20260506040106 47 25 0.0 13.0 0.04 0.00 0.00 94 1006.2
20260506035631 48 29 0.0 9.0 0.04 0.00 0.00 94 1006.2
20260506035156 48 15 0.0 8.0 0.04 0.00 0.00 94 1006.3
20260506034724 48 356 0.0 13.0 0.04 0.00 0.00 94 1006.2
20260506034256 48 23 0.0 9.0 0.04 0.00 0.00 94 1006.3
20260506033841 48 22 0.0 9.0 0.05 0.00 0.00 94 1006.3
20260506033411 48 41 0.0 9.0 0.05 0.00 0.00 94 1006.3
20260506032946 48 39 0.0 13.0 0.06 0.00 0.00 94 1006.3
20260506032526 48 360 0.0 11.0 0.06 0.00 0.00 94 1006.3
20260506032036 48 360 0.0 11.0 0.06 0.00 0.00 94 1006.3
20260506031606 48 3 0.0 13.0 0.08 0.00 0.00 94 1006.3
20260506031121 48 6 0.0 10.0 0.09 0.00 0.00 94 1006.3
20260506030716 48 13 0.0 9.0 0.10 0.00 0.00 94 1006.5
20260506030253 48 1 0.0 11.0 0.08 0.00 0.00 94 1006.5
20260506025806 48 15 0.0 14.0 0.07 0.00 0.00 94 1006.5
20260506025328 48 52 0.0 15.0 0.07 0.00 0.00 94 1006.6
20260506024912 48 356 0.0 11.0 0.08 0.00 0.00 94 1006.7
20260506024456 49 2 0.0 11.0 0.10 0.00 0.00 94 1006.6
20260506024021 49 19 0.0 14.0 0.11 0.00 0.00 94 1006.7
20260506023602 49 19 0.0 14.0 0.11 0.00 0.00 94 1006.7
20260506023151 49 349 0.0 14.0 0.11 0.00 0.00 94 1006.7
20260506022726 49 8 0.0 11.0 0.11 0.00 0.00 93 1006.7
20260506022256 49 29 0.0 10.0 0.10 0.00 0.00 93 1006.7
20260506021811 49 24 0.0 11.0 0.10 0.00 0.00 93 1006.8
20260506021316 49 356 0.0 9.0 0.08 0.00 0.00 93 1006.9
20260506020911 49 16 0.0 8.0 0.07 0.00 0.00 93 1006.9
20260506020416 49 356 0.0 7.0 0.07 0.00 0.00 93 1007.0
20260506015940 49 18 0.0 11.0 0.07 0.00 0.00 93 1007.0
20260506015526 49 15 0.0 13.0 0.08 0.00 0.00 93 1007.0
20260506015056 49 15 0.0 13.0 0.08 0.00 0.00 93 1007.0
20260506014626 49 359 0.0 13.0 0.08 0.00 0.00 93 1007.0
20260506014201 49 35 0.0 14.0 0.08 0.00 0.00 93 1007.1
20260506013733 49 45 0.0 14.0 0.08 0.00 0.00 93 1007.2
20260506013311 49 35 0.0 10.0 0.08 0.00 0.00 93 1007.1
20260506012821 49 25 0.0 10.0 0.08 0.00 0.00 93 1007.1
20260506012356 49 355 0.0 8.0 0.07 0.00 0.00 93 1007.2
20260506011922 49 3 0.0 8.0 0.08 0.00 0.00 93 1007.1
20260506011501 49 343 0.0 9.0 0.08 0.00 0.00 93 1007.2
20260506011041 50 359 0.0 9.0 0.08 0.00 0.00 93 1007.2
20260506010543 50 358 0.0 14.0 0.07 0.00 0.00 93 1007.2
20260506010106 50 358 0.0 14.0 0.07 0.00 0.00 93 1007.2
20260506005656 50 4 0.0 13.0 0.06 0.00 0.00 93 1007.3
20260506005211 50 13 0.0 8.0 0.06 0.00 0.00 93 1007.4
20260506004746 50 2 0.0 9.0 0.06 0.00 0.00 93 1007.4
20260506004256 50 4 0.0 11.0 0.07 0.00 0.00 93 1007.3
20260506003836 50 31 0.0 11.0 0.08 0.00 0.00 93 1007.4
20260506003406 50 25 0.0 6.0 0.08 0.00 0.00 93 1007.4
20260506002953 50 2 0.0 9.0 0.10 0.00 0.00 93 1007.5
20260506002516 50 11 0.0 10.0 0.12 0.00 0.00 93 1007.6
20260506002053 50 72 0.0 8.0 0.12 0.00 0.00 93 1007.7
20260506001156 50 38 0.0 8.0 0.11 0.00 0.00 93 1007.7
20260506000716 50 7 0.0 7.0 0.10 0.00 0.00 92 1007.9
20260506000241 50 37 0.0 4.0 0.09 0.00 0.00 92 1007.9
20260505235759 50 21 0.0 7.0 0.10 0.00 0.00 92 1008.0
20260505235331 50 85 0.0 6.0 0.10 0.00 0.00 92 1008.1
20260505234921 50 29 0.0 7.0 0.11 0.00 0.00 92 1008.1
20260505234456 50 26 0.0 6.0 0.11 0.00 0.00 92 1008.1
20260505234021 50 341 0.0 8.0 0.11 0.00 0.00 92 1008.1
20260505233551 50 38 0.0 11.0 0.10 0.00 0.00 92 1008.1
20260505233116 50 38 0.0 11.0 0.10 0.00 0.00 92 1008.1
20260505232656 50 36 0.0 13.0 0.08 0.00 0.00 92 1008.1
20260505232226 50 8 0.0 14.0 0.08 0.00 0.00 92 1008.2
20260505231746 50 340 0.0 14.0 0.08 0.00 0.00 92 1008.2
20260505231316 51 12 0.0 7.0 0.08 0.00 0.00 92 1008.2
20260505230901 51 43 0.0 11.0 0.08 0.00 0.00 92 1008.2
20260505230431 51 45 0.0 7.0 0.08 0.00 0.00 92 1008.2
20260505225946 51 60 0.0 9.0 0.09 0.00 0.00 92 1008.2
20260505225511 51 5 0.0 9.0 0.09 0.00 0.00 92 1008.3
20260505225036 51 5 0.0 9.0 0.09 0.00 0.00 92 1008.3
20260505224556 51 25 0.0 14.0 0.08 0.00 0.00 92 1008.3
20260505224136 51 25 0.0 14.0 0.08 0.00 0.00 92 1008.3
20260505223706 51 36 0.0 8.0 0.08 0.00 0.00 92 1008.3
20260505223246 51 22 0.0 9.0 0.07 0.00 0.00 92 1008.3
20260505222751 51 10 0.0 11.0 0.08 0.00 0.00 92 1008.4
20260505222326 51 44 0.0 13.0 0.07 0.00 0.00 91 1008.5
20260505221911 51 358 0.0 13.0 0.07 0.00 0.00 91 1008.4
20260505221441 51 8 0.0 9.0 0.06 0.00 0.00 91 1008.5
20260505221006 52 11 0.0 8.0 0.05 0.00 0.00 91 1008.4
20260505220536 52 71 0.0 3.0 0.05 0.00 0.00 91 1008.5
20260505220106 52 71 0.0 3.0 0.05 0.00 0.00 91 1008.5
20260505215636 52 26 0.0 6.0 0.04 0.00 0.00 91 1008.6
20260505215156 52 9 0.0 7.0 0.03 0.00 0.00 91 1008.6
20260505214716 52 352 0.0 9.0 0.02 0.00 0.00 91 1008.6
20260505214301 52 40 0.0 7.0 0.02 0.00 0.00 91 1008.8
20260505213821 52 360 0.0 6.0 0.01 0.00 0.00 91 1008.8
20260505213341 52 24 0.0 6.0 0.01 0.00 0.00 91 1008.8
20260505212906 52 360 0.0 7.0 0.00 0.00 0.00 91 1008.8
20260505212441 52 30 0.0 7.0 0.00 0.00 0.00 91 1008.9
20260505212036 52 0.0 2.0 0.00 0.00 0.00 91 1008.8
20260505211621 52 0.0 2.0 0.00 0.00 0.00 91 1008.8
20260505211141 52 53 0.0 6.0 0.00 0.00 0.00 91 1008.7
20260505210711 52 352 0.0 6.0 0.00 0.00 0.00 91 1008.9
20260505210236 52 337 0.0 6.0 0.00 0.00 0.00 91 1008.9
20260505205741 52 103 0.0 6.0 0.00 0.00 0.00 91 1009.0
20260505205301 52 340 0.0 7.0 0.00 0.00 0.00 90 1008.9
20260505204801 52 11 0.0 6.0 0.00 0.00 0.00 90 1008.9
20260505204346 53 346 0.0 6.0 0.00 0.00 0.00 90 1008.9
20260505203901 53 39 0.0 3.0 0.00 0.00 0.00 90 1009.0
20260505203446 53 348 0.0 6.0 0.00 0.00 0.00 90 1009.0
20260505203021 53 351 0.0 6.0 0.00 0.00 0.00 90 1008.9
20260505202536 53 351 0.0 6.0 0.00 0.00 0.00 90 1008.9
20260505202046 53 53 0.0 6.0 0.00 0.00 0.00 90 1009.0
20260505201609 53 53 0.0 6.0 0.00 0.00 0.00 90 1009.0
20260505201151 53 73 0.0 3.0 0.00 0.00 0.00 90 1009.0
20260505200731 53 27 0.0 3.0 0.00 0.00 0.00 90 1009.1
20260505200246 53 10 0.0 4.0 0.00 0.00 0.00 90 1009.1
20260505195801 53 19 0.0 3.0 0.00 0.00 0.00 90 1009.0
20260505195326 53 14 0.0 6.0 0.00 0.00 0.00 90 1009.0
20260505194846 53 59 0.0 2.0 0.00 0.00 0.00 90 1009.0
20260505194411 53 338 0.0 8.0 0.00 0.00 0.00 90 1009.0
20260505193942 53 22 0.0 6.0 0.00 0.00 0.00 90 1009.1
20260505193501 53 87 0.0 4.0 0.00 0.00 0.00 90 1009.1
20260505193026 53 48 0.0 7.0 0.00 0.00 0.00 90 1009.1
20260505192551 53 48 0.0 7.0 0.00 0.00 0.00 90 1009.1
20260505192116 52 88 0.0 7.0 0.00 0.00 0.00 90 1009.1
20260505191647 52 83 0.0 2.0 0.00 0.00 0.00 90 1009.1
20260505191226 52 21 0.0 3.0 0.00 0.00 0.00 90 1009.0
20260505190807 52 106 0.0 1.0 0.00 0.00 0.00 89 1008.9
20260505190331 52 0.0 0.0 0.00 0.00 0.00 90 1008.9
20260505185906 52 0.0 0.0 0.00 0.00 0.00 90 1008.9
20260505185501 52 49 0.0 4.0 0.00 0.00 0.00 89 1008.9
20260505185026 52 49 0.0 4.0 0.00 0.00 0.00 89 1008.9
20260505184601 52 49 0.0 6.0 0.00 0.00 0.00 89 1008.9
20260505184136 52 49 0.0 6.0 0.00 0.00 0.00 89 1008.9
20260505183711 52 96 0.0 7.0 0.00 0.00 0.00 89 1009.0
20260505183241 53 59 0.0 8.0 0.00 0.00 0.00 89 1008.9
20260505182801 53 352 0.0 7.0 0.00 0.00 0.00 89 1008.9
20260505182341 53 356 0.0 9.0 0.00 0.00 0.00 89 1009.0
20260505181906 53 5 0.0 7.0 0.00 0.00 0.00 89 1008.9
20260505181436 53 14 0.0 8.0 0.00 0.00 0.00 89 1008.9
20260505181021 53 350 0.0 11.0 0.00 0.00 0.00 88 1008.9
20260505180601 53 350 0.0 11.0 0.00 0.00 0.00 88 1008.9
20260505180146 53 55 0.0 10.0 0.00 0.00 0.00 88 1008.7
20260505175716 53 27 0.0 11.0 0.00 0.00 0.00 88 1008.8
20260505175231 53 4 0.0 10.0 0.00 0.00 0.00 88 1008.9
20260505174806 53 24 0.0 10.0 0.00 0.00 0.00 88 1008.9
20260505174341 54 19 0.0 11.0 0.00 0.00 0.00 87 1008.8
20260505173916 54 13 0.0 10.0 0.00 0.00 0.00 87 1009.0
20260505173446 54 16 0.0 10.0 0.00 0.00 0.00 87 1008.9
20260505173006 54 352 0.0 10.0 0.00 0.00 0.00 87 1008.9
20260505172536 54 54 0.0 8.0 0.00 0.00 0.00 87 1009.0
20260505172106 54 54 0.0 8.0 0.00 0.00 0.00 87 1009.0
20260505171646 54 44 0.0 10.0 0.00 0.00 0.00 87 1009.1
20260505171226 54 46 0.0 8.0 0.00 0.00 0.00 87 1009.0
20260505170801 54 16 0.0 8.0 0.00 0.00 0.00 86 1008.9
20260505170341 54 357 0.0 10.0 0.00 0.00 0.00 86 1009.0
20260505165907 54 40 0.0 10.0 0.00 0.00 0.00 86 1009.0
20260505165443 54 28 0.0 10.0 0.00 0.00 0.00 86 1009.0
20260505165016 54 3 0.0 7.0 0.00 0.00 0.00 86 1008.9
20260505164544 54 3 0.0 7.0 0.00 0.00 0.00 86 1008.9
20260505164131 54 11 0.0 10.0 0.00 0.00 0.00 86 1009.0
20260505163716 54 358 0.0 15.0 0.00 0.00 0.00 86 1009.0
20260505163221 54 342 0.0 8.0 0.00 0.00 0.00 86 1009.1
20260505162756 54 26 0.0 6.0 0.00 0.00 0.00 86 1009.1
20260505162326 54 14 0.0 15.0 0.00 0.00 0.00 86 1009.0
20260505161904 54 28 0.0 10.0 0.00 0.00 0.00 85 1009.0
20260505161431 54 15 0.0 16.0 0.00 0.00 0.00 85 1009.0
20260505160951 54 27 0.0 9.0 0.00 0.00 0.00 85 1009.1
20260505160501 54 43 0.0 9.0 0.00 0.00 0.00 85 1009.2
20260505153331 56 354 0.0 10.0 0.00 0.00 0.00 83 1009.6
20260505152911 56 355 0.0 8.0 0.00 0.00 0.00 83 1009.6
20260505152426 56 302 0.0 9.0 0.00 0.00 0.00 82 1009.6
20260505151941 56 353 0.0 13.0 0.00 0.00 0.00 82 1009.5
20260505151531 57 346 0.0 11.0 0.00 0.00 0.00 82 1009.5
20260505151101 57 346 0.0 11.0 0.00 0.00 0.00 82 1009.5
20260505150606 57 26 0.0 10.0 0.00 0.00 0.00 82 1009.5
20260505150121 57 1 0.0 10.0 0.00 0.00 0.00 82 1009.5
20260505140646 58 360 0.0 9.0 0.00 0.00 0.00 79 1009.9
20260505140216 58 39 0.0 10.0 0.00 0.00 0.00 78 1010.0
20260505125016 62 328 0.0 9.0 0.00 0.00 0.00 73 1010.1
20260505124546 62 328 0.0 9.0 0.00 0.00 0.00 73 1010.1
20260505124121 63 338 0.0 9.0 0.00 0.00 0.00 73 1010.2
20260505123646 63 21 0.0 14.0 0.00 0.00 0.00 72 1010.1
20260505123156 64 13 0.0 10.0 0.00 0.00 0.00 72 1010.1
20260505122721 64 49 0.0 8.0 0.00 0.00 0.00 73 1010.2
20260505122306 63 329 0.0 11.0 0.00 0.00 0.00 76 1010.3
20260505121841 63 25 0.0 11.0 0.00 0.00 0.00 75 1010.4
20260505121421 64 357 0.0 10.0 0.00 0.00 0.00 74 1010.3
20260505120956 64 1 0.0 11.0 0.00 0.00 0.00 76 1010.5
20260505120551 63 15 0.0 7.0 0.00 0.00 0.00 77 1010.5
20260505120101 63 15 0.0 7.0 0.00 0.00 0.00 77 1010.5
20260505115621 62 318 0.0 13.0 0.00 0.00 0.00 77 1010.6
20260505115126 62 343 0.0 13.0 0.00 0.00 0.00 78 1010.6
20260505114656 61 2 0.0 10.0 0.00 0.00 0.00 78 1010.6
20260505114212 60 8 0.0 10.0 0.00 0.00 0.00 80 1010.6
20260505113738 60 5 0.0 11.0 0.00 0.00 0.00 79 1010.5
20260505113316 60 18 0.0 11.0 0.00 0.00 0.00 81 1010.5
20260505112841 60 2 0.0 10.0 0.00 0.00 0.00 81 1010.7
20260505112406 60 64 0.0 7.0 0.00 0.00 0.00 80 1010.7
20260505111916 60 58 0.0 4.0 0.00 0.00 0.00 81 1010.8